TimePST,TemperatureF,Dew PointF,Humidity,Sea Level PressureIn,VisibilityMPH,Wind Direction,Wind SpeedMPH,Gust SpeedMPH,PrecipitationIn,Events,Conditions,WindDirDegrees,DateUTC
12:51 AM,50.0,43.0,77,30.06,10.0,SSE,8.1,-,N/A,,Overcast,150,2012-12-22 08:51:00
1:51 AM,53.1,45.0,74,30.06,10.0,SSE,8.1,-,N/A,,Overcast,160,2012-12-22 09:51:00
2:51 AM,54.0,45.0,72,30.05,10.0,SSE,11.5,-,N/A,,Overcast,150,2012-12-22 10:51:00
3:51 AM,54.0,45.0,72,30.05,10.0,SSE,10.4,-,N/A,,Overcast,150,2012-12-22 11:51:00
4:51 AM,54.0,45.0,72,30.04,10.0,SE,5.8,-,N/A,,Overcast,130,2012-12-22 12:51:00
5:51 AM,53.1,43.0,69,30.04,10.0,ESE,10.4,-,N/A,,Overcast,120,2012-12-22 13:51:00
6:51 AM,54.0,46.0,75,30.04,10.0,SE,10.4,-,0.00,Rain,Light Rain,130,2012-12-22 14:51:00
7:34 AM,53.6,48.2,82,30.05,1.8,SE,9.2,-,0.01,Rain,Rain,140,2012-12-22 15:34:00
7:51 AM,52.0,48.9,89,30.06,2.5,ESE,8.1,-,0.04,Rain,Light Rain,110,2012-12-22 15:51:00
8:06 AM,53.6,48.2,82,30.06,7.0,SE,6.9,-,0.00,Rain,Light Rain,140,2012-12-22 16:06:00
8:15 AM,51.8,48.2,88,30.06,1.8,SE,8.1,-,0.02,Rain,Rain,130,2012-12-22 16:15:00
8:36 AM,51.8,48.2,88,30.07,0.8,SSE,12.7,-,0.07,Rain,Heavy Rain,150,2012-12-22 16:36:00
8:47 AM,51.8,50.0,94,30.08,1.0,SSE,11.5,-,0.11,Rain,Rain,150,2012-12-22 16:47:00
8:51 AM,52.0,50.0,93,30.09,1.2,SSE,12.7,-,0.12,Rain,Rain,150,2012-12-22 16:51:00
8:58 AM,51.8,50.0,94,30.08,2.0,SE,9.2,-,0.01,Rain,Light Rain,140,2012-12-22 16:58:00
9:00 AM,51.8,50.0,94,30.08,1.2,SSE,10.4,-,0.01,Rain,Light Rain,150,2012-12-22 17:00:00
9:45 AM,51.8,51.8,100,30.11,1.5,SE,6.9,-,0.16,Rain,Rain,140,2012-12-22 17:45:00
9:51 AM,52.0,51.1,97,30.13,2.0,ESE,4.6,-,0.16,Rain,Light Rain,120,2012-12-22 17:51:00
10:01 AM,53.6,51.8,94,30.11,1.2,East,5.8,-,0.01,Rain,Rain,100,2012-12-22 18:01:00
10:19 AM,53.6,51.8,94,30.11,0.8,East,5.8,-,0.12,Rain,Heavy Rain,100,2012-12-22 18:19:00
10:23 AM,53.6,51.8,94,30.11,1.8,East,6.9,-,0.12,Rain,Light Rain,90,2012-12-22 18:23:00
10:30 AM,53.6,51.8,94,30.11,2.0,East,5.8,-,0.13,Rain,Light Rain,100,2012-12-22 18:30:00
10:41 AM,53.6,51.8,94,30.11,6.0,ESE,4.6,-,0.13,Rain,Light Rain,110,2012-12-22 18:41:00
10:51 AM,55.0,53.1,93,30.12,10.0,SE,6.9,-,0.13,,Overcast,130,2012-12-22 18:51:00
11:51 AM,55.9,53.1,90,30.11,10.0,SSE,11.5,-,N/A,,Mostly Cloudy,160,2012-12-22 19:51:00
12:51 PM,57.9,53.1,84,30.09,10.0,SSE,15.0,-,0.00,,Overcast,160,2012-12-22 20:51:00
1:51 PM,57.0,54.0,89,30.08,7.0,SSW,4.6,-,0.01,Rain,Light Rain,210,2012-12-22 21:51:00
2:21 PM,57.2,53.6,88,30.08,5.0,SSE,8.1,-,0.00,Rain,Light Rain,160,2012-12-22 22:21:00
2:31 PM,57.2,53.6,88,30.08,2.5,SSW,6.9,-,0.00,Rain,Light Rain,210,2012-12-22 22:31:00
2:37 PM,57.2,53.6,88,30.08,1.2,WSW,8.1,-,0.02,Rain,Rain,240,2012-12-22 22:37:00
2:51 PM,55.9,53.1,90,30.10,2.0,SW,6.9,-,0.10,Rain,Light Rain,220,2012-12-22 22:51:00
3:10 PM,55.4,53.6,94,30.09,2.0,South,4.6,-,0.01,Rain,Light Rain,180,2012-12-22 23:10:00
3:19 PM,55.4,53.6,94,30.09,5.0,South,6.9,-,0.01,Rain,Light Rain,170,2012-12-22 23:19:00
3:51 PM,55.0,53.1,93,30.10,5.0,SSE,6.9,-,0.01,Rain,Light Rain,150,2012-12-22 23:51:00
4:51 PM,55.0,53.1,93,30.09,10.0,SSW,3.5,-,0.01,,Overcast,200,2012-12-23 00:51:00
5:51 PM,55.0,52.0,89,30.12,8.0,South,6.9,-,0.00,,Overcast,170,2012-12-23 01:51:00
6:18 PM,53.6,51.8,94,30.11,10.0,Calm,Calm,-,0.00,,Mostly Cloudy,0,2012-12-23 02:18:00
6:48 PM,53.6,51.8,94,30.12,10.0,Calm,Calm,-,0.00,,Mostly Cloudy,0,2012-12-23 02:48:00
6:51 PM,54.0,52.0,93,30.13,10.0,Calm,Calm,-,0.00,,Mostly Cloudy,0,2012-12-23 02:51:00
7:51 PM,54.0,51.1,90,30.14,10.0,SE,3.5,-,N/A,,Scattered Clouds,140,2012-12-23 03:51:00
8:51 PM,54.0,52.0,93,30.16,3.0,SSE,8.1,-,0.00,Rain,Light Rain,150,2012-12-23 04:51:00
9:08 PM,53.6,51.8,94,30.14,4.0,Calm,Calm,-,0.01,Rain,Light Rain,0,2012-12-23 05:08:00
9:51 PM,53.1,52.0,96,30.15,10.0,South,3.5,-,0.02,,Overcast,170,2012-12-23 05:51:00
10:51 PM,53.1,50.0,89,30.18,10.0,South,5.8,-,N/A,,Mostly Cloudy,170,2012-12-23 06:51:00
11:51 PM,50.0,48.0,93,30.18,10.0,Calm,Calm,-,N/A,,Partly Cloudy,0,2012-12-23 07:51:00